Location: Oundoundou
(13.6667°N, 13.5500°W)
Time: 19:12:10
(UTC+00:00)

Daily predictions for brighter satellites

Satellite Brightness Start Highest point End
(mag) Time Altitude Azimuth Time Altitude Azimuth Time Altitude Azimuth
CZ-3A R/B 4.4 16:07:40 10° WSW 16:12:50 76° SSE 16:59:52 10° ENE
RESURS DK-1 2.5 19:34:47 10° NNW 19:38:53 82° WSW 19:43:00 10° SSE
Spot 2 Rocket 3.8 19:34:19 10° SSE 19:39:08 47° ENE 19:43:56 10° N
Aureole 2 Rocket 3.2 19:36:08 10° S 19:40:08 42° ESE 19:43:51 10° NNE
Skynet4D Del rocket 3.9 19:36:21 10° WNW 19:42:14 64° NNE 19:47:36 10° ESE
Cosmos 1844 4.1 19:38:55 10° N 19:44:29 49° ENE 19:50:02 10° SSE
Cosmos 1400 Rocket 4.1 19:43:02 10° NNW 19:46:46 43° W 19:50:32 10° SSW
ISS -0.3 19:44:26 10° WSW 19:46:59 21° NW 19:49:34 10° N
Cosmos 2251 Rocket 4.4 19:42:59 10° SSW 19:48:09 57° WNW 19:53:22 10° N
Centaur D AC-28 4.1 19:45:01 10° NW 19:49:22 18° N 19:52:08 10° NE
Palapa B4 Rocket 3.0 19:47:10 10° WNW 19:51:40 67° NNE 19:55:14 11° E
Mugunghwa Rocket 4.0 19:45:41 10° WSW 19:52:03 90° SSE 19:58:24 10° ENE
Delta 7925 Rocket 4.5 19:51:23 10° SSW 19:55:15 22° SSE 19:58:19 12° ESE
Cosmos 2233 Rocket 4.4 19:51:01 10° NNE 19:56:45 40° E 20:02:26 10° SSE
Ariane H10 3.8 19:57:43 10° SSW 19:58:43 12° SSE 19:59:37 11° SSE
Cosmos 1420 Rocket 4.1 20:00:33 10° NNW 20:05:47 81° WSW 20:11:00 10° S
ARIANE 5 DEB (SYLDA 5A) 4.2 20:03:55 10° WSW 20:08:11 17° SSW 20:10:11 11° SSE
CZ-4B DEB 2.9 20:07:34 12° SSE 20:10:38 59° ENE 20:13:54 10° N
USA 186 3.7 20:13:38 13° ENE 20:13:38 13° ENE 20:14:30 10° NE
Cosmos 2058 Rocket 4.3 20:13:14 10° NE 20:16:31 21° E 20:17:10 20° E
Cosmos 2098 Rocket 3.3 20:12:28 10° N 20:16:53 74° E 20:22:34 10° S
Cosmos 2278 Rocket 2.2 20:11:25 10° N 20:17:02 65° ENE 20:21:43 15° SSE
HJ-1C 4.4 20:15:53 10° S 20:19:03 46° W 20:22:14 10° NNW
SEDSat Delta rocket 4.3 20:24:50 10° SSW 20:29:05 27° SE 20:29:40 27° SE
Okean 2 3.4 20:24:55 10° S 20:29:06 87° W 20:33:17 10° N
Hubble Space Telescope 1.3 20:27:55 10° WNW 20:31:56 49° SSW 20:33:27 32° SSE
Cosmos 1606 Rocket 3.5 20:28:25 10° N 20:32:46 64° E 20:34:58 28° SSE
GPS 2-18 Rocket1 2.9 20:29:36 10° WSW 20:33:20 63° SSE 20:34:13 45° ESE
Cosmos 1626 Rocket 3.9 20:32:11 31° SE 20:33:41 42° E 20:37:52 10° NNE
ATLAS 3B R/B 3.0 20:27:41 10° S 20:35:05 56° ESE 20:42:34 10° NE
GPS 2-14 Rocket1 4.2 20:34:01 10° SSW 20:36:09 21° S 20:36:09 21° S
deb Chang Zheng 4 3.5 20:33:19 10° NNE 20:37:36 58° ESE 20:40:04 24° S
H-2A R/B 3.5 20:30:53 10° SW 20:40:32 24° S 20:41:13 23° SSE
OTV 4 0.4 20:37:50 10° NW 20:40:43 77° WSW 20:40:43 77° WSW
Ariane H10 3.4 20:37:37 10° WSW 20:41:11 45° SSE 20:45:46 27° ESE
Delta 198 3.7 20:38:09 10° W 20:42:05 53° NNW 20:43:48 27° NE
GPS 2-17 Rocket1 3.2 20:38:53 10° W 20:43:15 65° NNW 20:45:24 29° ENE
Nimbus 7 Rocket 4.4 20:41:07 10° NNE 20:46:51 53° ESE 20:50:12 24° S
Meteor 2-17 Rocket 4.4 20:42:04 10° N 20:48:13 84° W 20:53:12 16° S
Cosmos 2228 4.0 20:45:16 10° NNE 20:48:27 32° ENE 20:48:27 32° ENE
CZ-2D R/B 3.2 20:49:06 52° S 20:50:01 86° WSW 20:53:54 10° NNW
Intelsat 5-2 Rocket 3.5 20:51:10 10° NW 20:52:46 30° NNW 20:52:46 30° NNW
Cosmos 1666 4.2 20:50:01 10° NNE 20:52:06 25° NE 20:52:06 25° NE
Meteor 1-15 Rocket 4.4 20:50:42 10° N 20:56:07 48° E 20:56:45 46° ESE
Cosmos 1331 Rocket 3.8 20:52:59 10° N 20:58:08 75° ENE 20:59:09 56° SE
FENGYUN 3A 3.5 20:57:23 41° SSE 20:59:20 85° ENE 21:04:42 10° N
Resurs 01 Rocket 4.4 20:59:58 10° SW 21:02:17 14° W 21:04:36 10° WNW
ALOS 2.4 21:04:16 48° SSW 21:05:28 70° WSW 21:10:07 10° NNW
BREEZE-M R/B 4.1 21:01:22 10° NW 21:05:32 58° SW 21:08:09 37° SSE
Cosmos 1891 Rocket 4.4 21:03:44 10° N 21:09:40 58° E 21:09:57 57° E
GPS 2-15 Rocket1 3.6 21:05:57 10° WNW 21:10:38 52° N 21:11:01 50° NNE
Cosmos 1302 Rocket 4.3 21:05:33 10° N 21:10:05 49° NE 21:10:05 49° NE
Meteor 2-9 Rocket 4.1 21:06:00 10° N 21:11:48 78° E 21:12:42 64° SSE
Cosmos 1943 3.2 21:08:23 10° SSW 21:14:01 80° WNW 21:19:41 10° NNE
Gbstr 26 Del rocket 4.5 21:08:34 10° NNW 21:16:21 70° NE 21:18:16 54° ESE
ERS-1 Rocket 3.1 21:17:08 62° NE 21:17:08 62° NE 21:21:31 10° N
Cosmos 2297 4.2 21:18:43 10° NNW 21:24:18 56° WSW 21:25:27 48° SSW
Tsikada Rocket 4.3 21:20:53 22° SSW 21:25:06 65° W 21:31:26 10° N
Milstar 3 Cent rocket 2.8 21:19:20 10° NW 21:26:17 45° NNE 21:26:46 44° NNE
Envisat 4.4 21:30:48 27° NNE 21:30:48 27° NNE 21:33:18 10° N
Cosmos 1513 Rocket 4.4 21:24:32 10° N 21:30:43 81° W 21:31:15 73° SSW
Cosmos 839 Rocket 4.4 21:47:30 10° NNW 21:55:24 77° N 21:55:24 77° N
ATLAS 3B CENTAUR R/B 4.2 22:03:09 10° W 22:06:30 29° SW 22:06:30 29° SW
Cosmos 2369 Rocket 4.5 22:07:32 10° N 22:08:31 15° NNE 22:08:31 15° NNE
